Change the Weather History Date:

Wednesday, May 29, 2013

  Actual Average (KHSV) Record (KHSV)
Temperature  
Mean Temperature 77 °F 74 °F  
Max Temperature 86 °F 85 °F 99 °F (1914)
Min Temperature 68 °F 63 °F 46 °F (1984)
Degree Days  
Heating Degree Days 0 0  
Month to date heating degree days 25  
Since 1 July heating degree days 2999  
Cooling Degree Days 12 9  
Month to date cooling degree days 172  
Year to date cooling degree days 244  
Growing Degree Days 27 (Base 50)    
Moisture  
Dew Point 54 °F    
Average Humidity 44    
Maximum Humidity 56    
Minimum Humidity 31    
Precipitation  
Precipitation 0.00 in 0.15 in 3.62 in (1912)
Month to date precipitation 4.80  
Year to date precipitation 24.06  
Snow  
Snow 0.00 in - - ()
Month to date snowfall  
Since 1 July snowfall  
Snow Depth -    
Sea Level Pressure  
Sea Level Pressure 30.11 in    
Wind  
Wind Speed 6 mph (SE)    
Max Wind Speed 12 mph    
Max Gust Speed 20 mph    
Visibility 10 miles    
Events      
T = Trace of Precipitation, MM = Missing Value Source: NWS Daily Summary

Daily Weather History Graph

Daily Weather History Graph

Search for Another Location

Airport or City:

Trip Planner

Search our weather history database for the weather conditions in past years. The results will help you decide how hot, cold, wet, or windy it might be!

Date:

Astronomy

May. 29, 2013 Rise Set
Actual Time 5:34 AM CDT 7:52 PM CDT
Civil Twilight 5:05 AM CDT 8:21 PM CDT
Nautical Twilight 4:30 AM CDT 8:57 PM CDT
Astronomical Twilight 3:51 AM CDT 9:36 PM CDT
Moon No Moon Rise 10:27 AM CDT (5/29)
Length of Visible Light 15h 16m
Length of Day
14h 18m
Waning Gibbous, 73% of the Moon is Illuminated
May 29
Waning Gibbous
May 31
Last Quarter
Jun 8
New
Jun 16
First Quarter
Jun 23
Full

Hourly Weather History & Observations

Time (CDT) Temp. Heat Index Dew Point Humidity Pressure Visibility Wind Dir Wind Speed Gust Speed Precip Events Conditions
12:15 AM 73.4 °F - 55.4 °F 53% 30.07 in 10.0 mi SSE 6.9 mph - N/A   Mostly Cloudy
12:35 AM 73.4 °F - 53.6 °F 50% 30.07 in 10.0 mi SSE 5.8 mph - N/A   Mostly Cloudy
12:55 AM 73.4 °F - 51.8 °F 47% 30.08 in 10.0 mi SSE 4.6 mph - N/A   Mostly Cloudy
1:15 AM 73.4 °F - 51.8 °F 47% 30.09 in 10.0 mi SSE 5.8 mph - N/A   Overcast
1:35 AM 73.4 °F - 51.8 °F 47% 30.09 in 10.0 mi South 5.8 mph - N/A   Mostly Cloudy
1:55 AM 73.4 °F - 51.8 °F 47% 30.10 in 10.0 mi Calm Calm - N/A   Overcast
2:15 AM 73.4 °F - 51.8 °F 47% 30.10 in 10.0 mi SSE 3.5 mph - N/A   Overcast
2:35 AM 73.4 °F - 51.8 °F 47% 30.10 in 10.0 mi SSE 4.6 mph - N/A   Overcast
2:55 AM 73.4 °F - 51.8 °F 47% 30.09 in 10.0 mi SSE 4.6 mph - N/A   Mostly Cloudy
3:15 AM 71.6 °F - 51.8 °F 50% 30.10 in 10.0 mi SSE 4.6 mph - N/A   Scattered Clouds
3:35 AM 71.6 °F - 50.0 °F 46% 30.10 in 10.0 mi SSE 6.9 mph - N/A   Scattered Clouds
3:55 AM 73.4 °F - 50.0 °F 44% 30.10 in 10.0 mi SSE 6.9 mph - N/A   Mostly Cloudy
4:15 AM 71.6 °F - 50.0 °F 46% 30.10 in 10.0 mi SSE 6.9 mph - N/A   Mostly Cloudy
4:35 AM 71.6 °F - 51.8 °F 50% 30.11 in 10.0 mi SE 5.8 mph - N/A   Scattered Clouds
4:55 AM 69.8 °F - 51.8 °F 53% 30.11 in 10.0 mi ESE 3.5 mph - N/A   Scattered Clouds
5:15 AM 69.8 °F - 51.8 °F 53% 30.11 in 10.0 mi ESE 3.5 mph - N/A   Scattered Clouds
5:35 AM 68.0 °F - 51.8 °F 56% 30.12 in 10.0 mi SE 4.6 mph - N/A   Clear
5:55 AM 68.0 °F - 51.8 °F 56% 30.12 in 10.0 mi ESE 4.6 mph - N/A   Clear
6:15 AM 69.8 °F - 51.8 °F 53% 30.13 in 10.0 mi ESE 4.6 mph - N/A   Scattered Clouds
6:35 AM 69.8 °F - 53.6 °F 56% 30.14 in 10.0 mi SE 4.6 mph - N/A   Mostly Cloudy
6:55 AM 69.8 °F - 53.6 °F 56% 30.14 in 10.0 mi SE 3.5 mph - N/A   Scattered Clouds
7:15 AM 71.6 °F - 53.6 °F 53% 30.15 in 10.0 mi SE 4.6 mph - N/A   Scattered Clouds
7:35 AM 71.6 °F - 53.6 °F 53% 30.15 in 10.0 mi SE 4.6 mph - N/A   Clear
7:55 AM 73.4 °F - 53.6 °F 50% 30.16 in 10.0 mi SE 5.8 mph - N/A   Clear
8:15 AM 73.4 °F - 53.6 °F 50% 30.16 in 10.0 mi SE 3.5 mph - N/A   Clear
8:35 AM 75.2 °F - 55.4 °F 50% 30.17 in 10.0 mi SE 5.8 mph - N/A   Clear
8:55 AM 77.0 °F - 55.4 °F 47% 30.17 in 10.0 mi SSE 5.8 mph - N/A   Clear
9:15 AM 77.0 °F - 55.4 °F 47% 30.19 in 10.0 mi SSE 6.9 mph - N/A   Scattered Clouds
9:35 AM 77.0 °F - 55.4 °F 47% 30.17 in 10.0 mi SE 8.1 mph - N/A   Scattered Clouds
9:55 AM 78.8 °F - 55.4 °F 44% 30.17 in 10.0 mi South 9.2 mph - N/A   Clear
10:15 AM 78.8 °F - 55.4 °F 44% 30.16 in 10.0 mi SE 9.2 mph - N/A   Clear
10:35 AM 78.8 °F - 57.2 °F 47% 30.16 in 10.0 mi ESE 5.8 mph - N/A   Clear
10:55 AM 78.8 °F - 55.4 °F 44% 30.17 in 10.0 mi SSE 6.9 mph - N/A   Clear
11:15 AM 80.6 °F 80.5 °F 55.4 °F 42% 30.16 in 10.0 mi SSE 11.5 mph - N/A   Scattered Clouds
11:35 AM 80.6 °F 80.5 °F 55.4 °F 42% 30.15 in 10.0 mi SSE 9.2 mph - N/A   Scattered Clouds
11:55 AM 82.4 °F 81.7 °F 55.4 °F 39% 30.16 in 10.0 mi South 9.2 mph - N/A   Scattered Clouds
12:15 PM 82.4 °F 81.7 °F 55.4 °F 39% 30.16 in 10.0 mi SSE 9.2 mph - N/A   Scattered Clouds
12:35 PM 82.4 °F 81.7 °F 55.4 °F 39% 30.15 in 10.0 mi SE 9.2 mph - N/A   Scattered Clouds
12:55 PM 82.4 °F 81.7 °F 55.4 °F 39% 30.15 in 10.0 mi SSE 11.5 mph 16.1 mph N/A   Scattered Clouds
1:15 PM 82.4 °F 81.7 °F 55.4 °F 39% 30.14 in 10.0 mi SSE 9.2 mph 16.1 mph N/A   Clear
1:35 PM 84.2 °F 83.0 °F 55.4 °F 37% 30.13 in 10.0 mi SSE 9.2 mph 16.1 mph N/A   Clear
1:55 PM 84.2 °F 82.8 °F 53.6 °F 35% 30.13 in 10.0 mi SSE 9.2 mph - N/A   Scattered Clouds
2:15 PM 84.2 °F 82.8 °F 53.6 °F 35% 30.12 in 10.0 mi SSE 9.2 mph 16.1 mph N/A   Scattered Clouds
2:35 PM 82.4 °F 81.4 °F 53.6 °F 37% 30.12 in 10.0 mi SSE 6.9 mph 10.4 mph N/A   Scattered Clouds
2:55 PM 82.4 °F 81.7 °F 55.4 °F 39% 30.11 in 10.0 mi SE 6.9 mph - N/A   Mostly Cloudy
3:15 PM 86.0 °F 84.2 °F 53.6 °F 33% 30.11 in 10.0 mi South 11.5 mph - N/A   Scattered Clouds
3:35 PM 86.0 °F - 51.8 °F 31% 30.09 in 10.0 mi SSE 10.4 mph 19.6 mph N/A   Clear
3:55 PM 86.0 °F - 51.8 °F 31% 30.09 in 10.0 mi South 10.4 mph 18.4 mph N/A   Clear
4:15 PM 86.0 °F 84.2 °F 53.6 °F 33% 30.08 in 10.0 mi ESE 11.5 mph - N/A   Scattered Clouds
4:35 PM 86.0 °F - 51.8 °F 31% 30.08 in 10.0 mi SSE 9.2 mph 18.4 mph N/A   Scattered Clouds
4:55 PM 86.0 °F - 51.8 °F 31% 30.07 in 10.0 mi ESE 10.4 mph - N/A   Scattered Clouds
5:15 PM 84.2 °F 82.8 °F 53.6 °F 35% 30.07 in 10.0 mi SE 6.9 mph - N/A   Scattered Clouds
5:35 PM 86.0 °F - 51.8 °F 31% 30.06 in 10.0 mi SE 8.1 mph - N/A   Scattered Clouds
5:55 PM 84.2 °F - 51.8 °F 33% 30.07 in 10.0 mi SSE 10.4 mph - N/A   Clear
6:15 PM 84.2 °F - 51.8 °F 33% 30.07 in 10.0 mi SSE 8.1 mph - N/A   Clear
6:35 PM 82.4 °F 81.4 °F 53.6 °F 37% 30.07 in 10.0 mi SE 9.2 mph - N/A   Clear
6:55 PM 82.4 °F 81.4 °F 53.6 °F 37% 30.07 in 10.0 mi SE 10.4 mph 17.3 mph N/A   Clear
7:15 PM 82.4 °F 81.4 °F 53.6 °F 37% 30.07 in 10.0 mi SE 6.9 mph - N/A   Clear
7:35 PM 80.6 °F 80.5 °F 55.4 °F 42% 30.07 in 10.0 mi SE 5.8 mph - N/A   Clear
7:55 PM 80.6 °F 80.5 °F 55.4 °F 42% 30.08 in 10.0 mi SSE 4.6 mph - N/A   Clear
8:15 PM 78.8 °F - 55.4 °F 44% 30.07 in 10.0 mi SE 3.5 mph - N/A   Clear
8:35 PM 78.8 °F - 55.4 °F 44% 30.08 in 10.0 mi SSE 4.6 mph - N/A   Clear
8:55 PM 78.8 °F - 55.4 °F 44% 30.08 in 10.0 mi SE 5.8 mph - N/A   Scattered Clouds
9:15 PM 77.0 °F - 55.4 °F 47% 30.08 in 10.0 mi SE 6.9 mph - N/A   Scattered Clouds
9:35 PM 77.0 °F - 55.4 °F 47% 30.08 in 10.0 mi SE 5.8 mph - N/A   Clear
9:55 PM 77.0 °F - 55.4 °F 47% 30.08 in 10.0 mi SE 6.9 mph - N/A   Clear
10:15 PM 77.0 °F - 55.4 °F 47% 30.09 in 10.0 mi SE 5.8 mph - N/A   Clear
10:35 PM 77.0 °F - 55.4 °F 47% 30.08 in 10.0 mi SE 5.8 mph - N/A   Clear
10:55 PM 75.2 °F - 55.4 °F 50% 30.08 in 10.0 mi SE 5.8 mph - N/A   Clear
11:15 PM 75.2 °F - 55.4 °F 50% 30.08 in 10.0 mi SE 9.2 mph - N/A   Clear
11:35 PM 75.2 °F - 55.4 °F 50% 30.08 in 10.0 mi SE 5.8 mph - N/A   Clear
11:55 PM 75.2 °F - 55.4 °F 50% 30.08 in 10.0 mi SE 9.2 mph - N/A   Clear